When you browse on this site, cookies collect data to enhance your experience and personalize the content and advertising you see.
Visit our Privacy Policy to learn more. By continuing to use the site, you agree to this use of cookies and data.
  • In Hungary
  • List of Countries
  • For 7 days
  • Water Temperature
  • Weather Map
  • News
  • Weather Widgets
  • user-avatar
    Login

    Hourly Weather Ontustik

    Today, 25 May, Monday

    Time Temperature Precipitation Wind Pressure Humidity
    00:00 +20°C° 0 mm 3 mps 669 mmHg 52%
    01:00 +20°C° 0 mm 3 mps 669 mmHg 50%
    02:00 +20°C° 0 mm 3 mps 669 mmHg 48%
    03:00 +20°C° 0 mm 3 mps 669 mmHg 45%
    04:00 +20°C° 0 mm 3 mps 669 mmHg 43%
    05:00 +20°C° 0 mm 3 mps 669 mmHg 40%
    06:00 +22°C° 0 mm 3 mps 670 mmHg 41%
    07:00 +25°C° 0 mm 2 mps 671 mmHg 42%
    08:00 +27°C° 0 mm 1 mps 671 mmHg 43%
    09:00 +28°C° 0 mm 2 mps 672 mmHg 41%
    10:00 +29°C° 0 mm 2 mps 672 mmHg 40%
    11:00 +30°C° 0 mm 2 mps 672 mmHg 39%
    12:00 +30°C° 0 mm 2 mps 672 mmHg 39%
    13:00 +30°C° 0 mm 3 mps 672 mmHg 39%
    14:00 +31°C° 0 mm 3 mps 672 mmHg 38%
    15:00 +30°C° 0 mm 3 mps 671 mmHg 42%
    16:00 +30°C° 0 mm 3 mps 671 mmHg 45%
    17:00 +29°C° 0 mm 3 mps 671 mmHg 48%
    18:00 +27°C° 0 mm 3 mps 670 mmHg 52%
    19:00 +25°C° 0 mm 3 mps 670 mmHg 56%
    20:00 +22°C° 0 mm 3 mps 670 mmHg 59%
    21:00 +22°C° 0 mm 3 mps 669 mmHg 59%
    22:00 +22°C° 0 mm 3 mps 669 mmHg 59%
    23:00 +21°C° 0 mm 3 mps 669 mmHg 58%

    Tomorrow, 26 May, Tuesday

    Time Temperature Precipitation Wind Pressure Humidity
    00:00 +21°C° 0 mm 3 mps 669 mmHg 56%
    01:00 +21°C° 0 mm 3 mps 669 mmHg 54%
    02:00 +21°C° 0 mm 3 mps 668 mmHg 52%
    03:00 +21°C° 0 mm 3 mps 668 mmHg 50%
    04:00 +21°C° 0 mm 3 mps 668 mmHg 47%
    05:00 +21°C° 0 mm 3 mps 668 mmHg 44%
    06:00 +24°C° 0 mm 2 mps 669 mmHg 43%
    07:00 +26°C° 0 mm 1 mps 670 mmHg 41%
    08:00 +28°C° 0 mm 1 mps 670 mmHg 40%
    09:00 +29°C° 0 mm 1 mps 671 mmHg 39%
    10:00 +30°C° 0 mm 2 mps 671 mmHg 37%
    11:00 +31°C° 0 mm 2 mps 671 mmHg 36%
    12:00 +32°C° 0.1 mm 2 mps 671 mmHg 36%
    13:00 +32°C° 0.1 mm 2 mps 671 mmHg 36%
    14:00 +33°C° 0.1 mm 3 mps 671 mmHg 36%
    15:00 +33°C° 0 mm 3 mps 670 mmHg 39%
    16:00 +31°C° 0 mm 3 mps 670 mmHg 42%
    17:00 +31°C° 0 mm 3 mps 670 mmHg 45%
    18:00 +28°C° 0 mm 3 mps 669 mmHg 49%
    19:00 +26°C° 0 mm 2 mps 669 mmHg 53%
    20:00 +24°C° 0 mm 2 mps 668 mmHg 56%
    21:00 +24°C° 0 mm 2 mps 668 mmHg 54%
    22:00 +23°C° 0 mm 2 mps 668 mmHg 52%
    23:00 +22°C° 0 mm 3 mps 668 mmHg 49%

    Day after tomorrow, 27 May, Wednesday

    Time Temperature Precipitation Wind Pressure Humidity
    00:00 +22°C° 0 mm 3 mps 668 mmHg 48%
    01:00 +22°C° 0 mm 3 mps 668 mmHg 46%
    02:00 +22°C° 0 mm 3 mps 668 mmHg 45%
    03:00 +22°C° 0 mm 3 mps 668 mmHg 44%
    04:00 +21°C° 0 mm 2 mps 668 mmHg 43%
    05:00 +21°C° 0 mm 2 mps 667 mmHg 43%
    06:00 +24°C° 0 mm 2 mps 668 mmHg 42%
    07:00 +26°C° 0 mm 2 mps 669 mmHg 42%
    08:00 +28°C° 0 mm 1 mps 669 mmHg 41%
    09:00 +29°C° 0 mm 2 mps 669 mmHg 41%
    10:00 +30°C° 0 mm 2 mps 670 mmHg 40%
    11:00 +30°C° 0 mm 3 mps 670 mmHg 40%
    12:00 +31°C° 0.1 mm 3 mps 670 mmHg 41%
    13:00 +32°C° 0.1 mm 4 mps 669 mmHg 41%
    14:00 +32°C° 0.1 mm 4 mps 669 mmHg 41%
    15:00 +30°C° 0.2 mm 4 mps 669 mmHg 43%
    16:00 +29°C° 0.2 mm 4 mps 669 mmHg 45%
    17:00 +29°C° 0.2 mm 5 mps 668 mmHg 47%
    18:00 +27°C° 0 mm 4 mps 668 mmHg 49%
    19:00 +25°C° 0 mm 4 mps 668 mmHg 50%
    20:00 +22°C° 0 mm 4 mps 667 mmHg 51%
    21:00 +22°C° 0 mm 4 mps 667 mmHg 48%
    22:00 +21°C° 0 mm 4 mps 667 mmHg 45%
    23:00 +21°C° 0 mm 4 mps 667 mmHg 42%

    28 May, Thursday

    Time Temperature Precipitation Wind Pressure Humidity
    00:00 +21°C° 0 mm 4 mps 666 mmHg 40%
    01:00 +21°C° 0 mm 4 mps 666 mmHg 39%
    02:00 +21°C° 0 mm 4 mps 666 mmHg 37%
    03:00 +20°C° 0 mm 4 mps 666 mmHg 37%
    04:00 +20°C° 0 mm 4 mps 666 mmHg 38%
    05:00 +20°C° 0 mm 4 mps 666 mmHg 38%
    06:00 +22°C° 0 mm 4 mps 666 mmHg 39%
    07:00 +25°C° 0 mm 3 mps 667 mmHg 41%
    08:00 +26°C° 0 mm 3 mps 668 mmHg 42%
    09:00 +27°C° 0 mm 4 mps 668 mmHg 42%
    10:00 +28°C° 0 mm 4 mps 668 mmHg 41%
    11:00 +29°C° 0 mm 5 mps 668 mmHg 41%
    12:00 +29°C° 0 mm 5 mps 668 mmHg 41%
    13:00 +29°C° 0 mm 5 mps 668 mmHg 42%
    14:00 +29°C° 0 mm 5 mps 668 mmHg 43%
    15:00 +29°C° 0.1 mm 5 mps 667 mmHg 44%
    16:00 +28°C° 0.1 mm 5 mps 667 mmHg 45%
    17:00 +28°C° 0.1 mm 5 mps 667 mmHg 46%
    18:00 +26°C° 0 mm 4 mps 666 mmHg 48%
    19:00 +23°C° 0 mm 4 mps 666 mmHg 51%
    20:00 +21°C° 0 mm 4 mps 666 mmHg 54%
    21:00 +21°C° 0 mm 4 mps 666 mmHg 53%
    22:00 +20°C° 0 mm 4 mps 666 mmHg 52%
    23:00 +19°C° 0 mm 4 mps 666 mmHg 51%

    29 May, Friday

    Time Temperature Precipitation Wind Pressure Humidity
    00:00 +19°C° 0 mm 4 mps 666 mmHg 49%
    01:00 +19°C° 0 mm 4 mps 666 mmHg 47%
    02:00 +19°C° 0 mm 3 mps 665 mmHg 45%
    03:00 +19°C° 0 mm 3 mps 665 mmHg 46%
    04:00 +18°C° 0 mm 3 mps 665 mmHg 46%
    05:00 +18°C° 0 mm 2 mps 665 mmHg 47%
    06:00 +20°C° 0 mm 2 mps 666 mmHg 47%
    07:00 +23°C° 0 mm 2 mps 667 mmHg 46%
    08:00 +25°C° 0 mm 2 mps 668 mmHg 46%
    09:00 +26°C° 0 mm 2 mps 668 mmHg 46%
    10:00 +26°C° 0 mm 3 mps 668 mmHg 46%
    11:00 +27°C° 0 mm 3 mps 668 mmHg 46%
    12:00 +28°C° 0.1 mm 3 mps 668 mmHg 46%
    13:00 +28°C° 0.1 mm 3 mps 668 mmHg 46%
    14:00 +28°C° 0.1 mm 3 mps 668 mmHg 46%
    15:00 +28°C° 0.1 mm 3 mps 668 mmHg 47%
    16:00 +27°C° 0.1 mm 3 mps 667 mmHg 48%
    17:00 +27°C° 0.1 mm 4 mps 667 mmHg 49%
    18:00 +25°C° 0 mm 3 mps 667 mmHg 52%
    19:00 +22°C° 0 mm 3 mps 667 mmHg 55%
    20:00 +20°C° 0 mm 3 mps 666 mmHg 59%
    21:00 +20°C° 0 mm 3 mps 666 mmHg 58%
    22:00 +19°C° 0 mm 3 mps 666 mmHg 57%
    23:00 +19°C° 0 mm 3 mps 666 mmHg 56%

    30 May, Saturday

    Time Temperature Precipitation Wind Pressure Humidity
    00:00 +18°C° 0 mm 3 mps 666 mmHg 56%
    01:00 +18°C° 0 mm 3 mps 666 mmHg 55%
    02:00 +18°C° 0 mm 3 mps 666 mmHg 55%
    03:00 +18°C° 0 mm 3 mps 666 mmHg 54%
    04:00 +18°C° 0 mm 3 mps 666 mmHg 54%
    05:00 +17°C° 0 mm 3 mps 666 mmHg 53%
    06:00 +19°C° 0 mm 2 mps 667 mmHg 50%
    07:00 +21°C° 0 mm 2 mps 667 mmHg 47%
    08:00 +25°C° 0 mm 1 mps 668 mmHg 44%
    09:00 +26°C° 0 mm 2 mps 668 mmHg 42%
    10:00 +27°C° 0 mm 2 mps 669 mmHg 39%
    11:00 +28°C° 0 mm 3 mps 669 mmHg 37%
    12:00 +28°C° 0 mm 3 mps 669 mmHg 38%
    13:00 +28°C° 0 mm 3 mps 669 mmHg 38%
    14:00 +28°C° 0 mm 3 mps 669 mmHg 38%
    15:00 +28°C° 0 mm 3 mps 668 mmHg 40%
    16:00 +28°C° 0 mm 3 mps 668 mmHg 41%
    17:00 +27°C° 0 mm 3 mps 668 mmHg 42%
    18:00 +25°C° 0.1 mm 3 mps 667 mmHg 45%
    19:00 +22°C° 0.1 mm 3 mps 667 mmHg 48%
    20:00 +20°C° 0.1 mm 3 mps 666 mmHg 50%
    21:00 +19°C° 0 mm 3 mps 666 mmHg 50%
    22:00 +19°C° 0 mm 2 mps 666 mmHg 49%
    23:00 +18°C° 0 mm 2 mps 667 mmHg 48%
    Show more